Regional Weather Roundup
Issued by NWS Sterling, VA

Home | Current Version | Previous Version | Text Only | Print | Product List | Glossary Off
Versions: 1 2 3 4 5 6 7 8 9 10 11 12 13 14 15 16 17 18 19 20 21 22 23 24 25 26 27 28 29 30 31 32 33 34 35 36 37 38 39 40 41 42 43 44 45 46 47 48 49 50

000
ASUS41 KLWX 281810
RWRLWX

REGIONAL WEATHER ROUNDUP
NATIONAL WEATHER SERVICE BALTIMORE MD/WASHINGTON DC
200 PM EDT THU MAY 28 2015

Note: "FAIR" indicates few or no clouds below 12,000 feet
with no significant weather and/or obstructions to visibility.
 TC=TEMPERATURE CELSIUS

 * =Non NWS site. Station does not report precipitation (e.g. rain,
    snow, etc.), thunder, or fog.

DCZ001-MDZ009-015-VAZ040>042-051-053>054-281900-
WASHINGTON METRO

CITY           SKY/WX    TMP DP  RH WIND       PRES   REMARKS
WASHINGTON NAT CLOUDY    90  62  39 N7        30.18S HX  90
DULLES         PTSUNNY   86  63  45 W8        30.18F
ANDREWS AFB    MOSUNNY   85  67  54 E2        30.17F
FT BELVOIR     MOSUNNY   88  68  52 VRB3      30.18S HX  91
QUANTICO       PTSUNNY   80  71  74 S7        30.19F
COLLEGE PARK*  MOSUNNY   88  63  42 N3        30.17S
LEESBURG*      MOSUNNY   88  64  45 SW5       30.20S
MANASSAS*      MOSUNNY   88  64  45 CALM      30.18F
GAITHERSBURG*  MOSUNNY   84  64  51 W5        30.22S

$$

MDZ006>007-011-014-281900-
BALTIMORE METRO

CITY           SKY/WX    TMP DP  RH WIND       PRES   REMARKS
BWI AIRPORT    PTSUNNY   88  63  43 W6        30.16F
MD SCIENCE CTR   N/A     86  66  51 MISG      30.16S
MARTIN STATE   PTSUNNY   84  75  74 E9        30.18F HX  92
ANNAPOLIS      PTSUNNY   78  70  76 SE12      30.17F
FORT MEADE*    SUNNY     86  64  48 W5        30.19F

$$

MDZ012-015-019>023-281900-
MARYLAND EASTERN SHORE

CITY           SKY/WX    TMP DP  RH WIND       PRES   REMARKS
OCEAN CITY     CLOUDY    74  66  76 S12       30.20F
SALISBURY      PTSUNNY   83  69  62 SW9       30.19F
BAY BRIDGE AP*   N/A    N/A N/A N/A W6        30.18S
CAMBRIDGE*     MOSUNNY   82  66  57 SW3       30.18S
EASTON*        MOSUNNY   84  72  65 CALM      30.22S

$$

MDZ017>025-281900-
SOUTHERN MARYLAND

CITY           SKY/WX    TMP DP  RH WIND       PRES   REMARKS
PATUXENT RIVER PTSUNNY   79  70  74 SE12      30.18F
ST INIGOES     MOSUNNY   84  69  60 S3        30.18F
LEONARDTOWN*   MOSUNNY   81  68  65 CALM      30.20S

$$

MDZ003>005-281900-
NORTH CENTRAL MARYLAND

CITY           SKY/WX    TMP DP  RH WIND       PRES   REMARKS
FREDERICK*     MOSUNNY   88  64  45 NW7       30.21S
HAGERSTOWN APT PTSUNNY   84  61  45 VRB7      30.20S
WESTMINSTER*   NOT AVBL

$$

MDZ501>502-281900-
WESTERN MARYLAND

CITY           SKY/WX    TMP DP  RH WIND       PRES   REMARKS
OAKLAND*       PTSUNNY   70  63  78 N5        30.32S
CUMBERLAND*    MOSUNNY   84  59  42 CALM      30.25S

$$

VAZ025>031-281900-
SHENANDOAH VALLEY

CITY           SKY/WX    TMP DP  RH WIND       PRES   REMARKS
WINCHESTER*    CLOUDY    84  54  34 N3        30.21S
FRONT ROYAL*   FAIR      82  66  57 CALM      30.20S
LURAY*         FAIR      88  61  40 CALM      30.21S
NEW MARKET*    MOCLDY    83  61  47 CALM      30.18F
STAUNTON*      PTSUNNY   85  60  42 S3        30.24F
WAYNESBORO*    FAIR      82  64  54 S7        30.24S

$$

WVZ021-048>050-054>055-281900-
EASTERN WEST VIRGINIA PANHANDLE

CITY           SKY/WX    TMP DP  RH WIND       PRES   REMARKS
MARTINSBURG    MOSUNNY   84  62  47 W6        30.21S
PETERSBURG*    PTSUNNY   82  56  41 CALM      30.22S

$$

VAZ036>039-050-281900-
CENTRAL FOOTHILLS

CITY           SKY/WX    TMP DP  RH WIND       PRES   REMARKS
CHARLOTTESVILL PTSUNNY   85  61  44 MISG      30.19F
CULPEPER*      MOSUNNY   86  62  44 N3        30.19S
ORANGE*        PTSUNNY   86  66  51 NE5       30.21S
GORDONSVILLE*  FAIR      85  65  51 CALM      30.19S
WARRENTON*     FAIR      89  67  49 CALM      30.19S HX  91

$$

VAZ055>057-281900-
NORTH AND CENTRAL PIEDMONT

CITY           SKY/WX    TMP DP  RH WIND       PRES   REMARKS
FREDERICKSBRG* PTSUNNY   88  64  44 CALM      30.18S HX  90
STAFFORD*      PTSUNNY   87  66  48 E8        30.23S

$$

NCZ024-NYZ072-PAZ021-071-VAZ022-071-281900-
OTHER REGIONAL OBSERVATIONS

CITY           SKY/WX    TMP DP  RH WIND       PRES   REMARKS
NEW YORK CITY  MOSUNNY   84  68  58 VRB3      30.16F
PHILADELPHIA   PTSUNNY   85  66  53 S7        30.14F
PITTSBURGH     CLOUDY    76  58  53 N6        30.27S
ROANOKE        LGT RAIN  82  60  47 N9        30.24S
RICHMOND       CLOUDY    87  67  51 S7        30.19F HX  90
RALEIGH        PTSUNNY   82  68  62 SE6       30.21F

$$

ANZ530>537-281900-
MARINE OBSERVATIONS

STATION/POSITION TIME  TEMP    WIND        PRES
                       AIR SEA DIR/SP/G
                 (UTC) (F)     (DEG/KT/KT) (MB)
THOMAS PT LIGHT  1800   73 71  180/ 10/ 10 1022.5S
BALT KEY BRIDGE  1700   77     110/ 11/ 12 1021.4F
COVE POINT       1700   71     170/ 12/ 12 1023.0F
LEWISETTA        1700   77 72              1022.0F
SOLOMONS ISLAND  1700      70                N/A
PINEY POINT      1700          140/  5/  5   N/A

$$




USA.gov is the U.S. government's official web portal to all federal, state and local government web resources and services.